Location: Newark
(52.0178°N, 4.7453°W)
Time: 22:27:57
(UTC+00:00)

ISS - Pass Details

Date: 23 March 2019
Orbit: 408 x 410 km, 51.6° (Epoch: 26 April)

Event Time Altitude Azimuth Distance (km) Brightness Sun altitude
Rises 20:50:00 0° 241° (WSW) 2,331 0.4 -20.3°
Reaches altitude 10° 20:52:07 10° 236° (SW) 1,472 -0.7 -20.6°
Enters shadow 20:53:56 28° 220° (SW) 796 -2.3 -20.8°
